When you browse on this site, cookies collect data to enhance your experience and personalize the content and advertising you see.
Visit our Privacy Policy to learn more. By continuing to use the site, you agree to this use of cookies and data.
  • In Czech Republic
  • List of Countries
  • For 7 days
  • Water Temperature
  • Satellite Maps
  • Weather Map
  • Weather Widgets
  • user-avatar
    Login

    Hourly Weather Wegielnia

    Today, 19 February, Tuesday

    Time Temperature Precipitation Wind Pressure Humidity
    00:00 0°C° 0 mm 4 mps 747 mmHg 93%
    01:00 0°C° 0 mm 4 mps 746 mmHg 93%
    02:00 0°C° 0 mm 4 mps 746 mmHg 94%
    03:00 0°C° 0 mm 4 mps 745 mmHg 94%
    04:00 -1°C° 0 mm 4 mps 744 mmHg 94%
    05:00 -1°C° 0 mm 4 mps 744 mmHg 94%
    06:00 -1°C° 0 mm 4 mps 743 mmHg 94%
    07:00 -1°C° 0 mm 4 mps 743 mmHg 94%
    08:00 -1°C° 0 mm 4 mps 742 mmHg 94%
    09:00 0°C° 0 mm 4 mps 742 mmHg 88%
    10:00 +1°C° 0 mm 5 mps 741 mmHg 82%
    11:00 +2°C° 0 mm 5 mps 741 mmHg 76%
    12:00 +3°C° 0 mm 6 mps 740 mmHg 70%
    13:00 +4°C° 0 mm 6 mps 740 mmHg 65%
    14:00 +8°C° 0 mm 5 mps 739 mmHg 60%
    15:00 +7°C° 0 mm 5 mps 739 mmHg 61%
    16:00 +7°C° 0 mm 5 mps 739 mmHg 63%
    17:00 +7°C° 0 mm 5 mps 738 mmHg 64%
    18:00 +6°C° 0 mm 5 mps 738 mmHg 70%
    19:00 +5°C° 0 mm 4 mps 738 mmHg 77%
    20:00 +4°C° 0 mm 4 mps 738 mmHg 83%
    21:00 +4°C° 0 mm 4 mps 738 mmHg 84%
    22:00 +3°C° 0 mm 4 mps 738 mmHg 85%
    23:00 +3°C° 0 mm 4 mps 738 mmHg 87%

    Tomorrow, 20 February, Wednesday

    Time Temperature Precipitation Wind Pressure Humidity
    00:00 +2°C° 0 mm 5 mps 738 mmHg 87%
    01:00 +1°C° 0 mm 5 mps 738 mmHg 87%
    02:00 +1°C° 0 mm 6 mps 738 mmHg 88%
    03:00 +1°C° 0 mm 6 mps 738 mmHg 87%
    04:00 +2°C° 0 mm 6 mps 738 mmHg 85%
    05:00 +2°C° 0 mm 6 mps 738 mmHg 84%
    06:00 +2°C° 0.1 mm 6 mps 738 mmHg 83%
    07:00 +1°C° 0.1 mm 6 mps 738 mmHg 83%
    08:00 0°C° 0.1 mm 7 mps 738 mmHg 83%
    09:00 0°C° 0 mm 7 mps 738 mmHg 80%
    10:00 +2°C° 0 mm 7 mps 738 mmHg 78%
    11:00 +1°C° 0 mm 8 mps 739 mmHg 76%
    12:00 +1°C° 0 mm 8 mps 739 mmHg 75%
    13:00 +1°C° 0 mm 8 mps 739 mmHg 74%
    14:00 +1°C° 0 mm 8 mps 739 mmHg 74%
    15:00 +1°C° 0 mm 8 mps 740 mmHg 74%
    16:00 +1°C° 0 mm 8 mps 740 mmHg 75%
    17:00 +1°C° 0 mm 8 mps 741 mmHg 76%
    18:00 0°C° 0 mm 8 mps 741 mmHg 74%
    19:00 -2°C° 0 mm 7 mps 742 mmHg 72%
    20:00 -3°C° 0 mm 6 mps 742 mmHg 69%
    21:00 -3°C° 0 mm 6 mps 743 mmHg 69%
    22:00 -4°C° 0 mm 5 mps 743 mmHg 68%
    23:00 -4°C° 0 mm 5 mps 744 mmHg 67%

    Day after tomorrow, 21 February, Thursday

    Time Temperature Precipitation Wind Pressure Humidity
    00:00 -4°C° 0 mm 5 mps 744 mmHg 67%
    01:00 -4°C° 0 mm 5 mps 745 mmHg 67%
    02:00 -5°C° 0 mm 5 mps 745 mmHg 66%
    03:00 -5°C° 0 mm 5 mps 745 mmHg 66%
    04:00 -4°C° 0 mm 4 mps 745 mmHg 65%
    05:00 -4°C° 0 mm 4 mps 745 mmHg 64%
    06:00 -4°C° 0 mm 4 mps 745 mmHg 64%
    07:00 -4°C° 0 mm 3 mps 746 mmHg 64%
    08:00 -4°C° 0 mm 3 mps 746 mmHg 63%
    09:00 -2°C° 0 mm 2 mps 746 mmHg 60%
    10:00 -2°C° 0 mm 2 mps 746 mmHg 57%
    11:00 -1°C° 0 mm 2 mps 746 mmHg 54%
    12:00 0°C° 0.1 mm 1 mps 746 mmHg 57%
    13:00 0°C° 0.1 mm 1 mps 745 mmHg 60%
    14:00 -1°C° 0.1 mm 0 mps 745 mmHg 63%
    15:00 0°C° 0.2 mm 1 mps 745 mmHg 66%
    16:00 0°C° 0.2 mm 1 mps 745 mmHg 70%
    17:00 -2°C° 0.2 mm 2 mps 744 mmHg 74%
    18:00 -3°C° 0.2 mm 2 mps 745 mmHg 72%
    19:00 -4°C° 0.2 mm 3 mps 745 mmHg 69%
    20:00 -4°C° 0.2 mm 3 mps 745 mmHg 67%
    21:00 -4°C° 0.1 mm 3 mps 746 mmHg 65%
    22:00 -4°C° 0.1 mm 4 mps 746 mmHg 63%
    23:00 -5°C° 0.1 mm 4 mps 747 mmHg 61%

    22 February, Friday

    Time Temperature Precipitation Wind Pressure Humidity
    00:00 -5°C° 0 mm 4 mps 748 mmHg 62%
    01:00 -5°C° 0 mm 4 mps 749 mmHg 62%
    02:00 -7°C° 0 mm 5 mps 749 mmHg 62%
    03:00 -7°C° 0 mm 5 mps 750 mmHg 62%
    04:00 -8°C° 0 mm 5 mps 751 mmHg 61%
    05:00 -9°C° 0 mm 6 mps 752 mmHg 61%
    06:00 -10°C° 0 mm 6 mps 753 mmHg 61%
    07:00 -10°C° 0 mm 6 mps 754 mmHg 61%
    08:00 -11°C° 0 mm 5 mps 755 mmHg 61%
    09:00 -10°C° 0 mm 5 mps 756 mmHg 56%
    10:00 -10°C° 0 mm 5 mps 757 mmHg 51%
    11:00 -8°C° 0 mm 5 mps 757 mmHg 46%
    12:00 -7°C° 0 mm 5 mps 758 mmHg 42%
    13:00 -7°C° 0 mm 4 mps 758 mmHg 38%
    14:00 -5°C° 0 mm 4 mps 759 mmHg 34%
    15:00 -5°C° 0 mm 4 mps 759 mmHg 35%
    16:00 -5°C° 0 mm 4 mps 759 mmHg 36%
    17:00 -5°C° 0 mm 3 mps 759 mmHg 36%
    18:00 -6°C° 0 mm 3 mps 760 mmHg 39%
    19:00 -6°C° 0 mm 3 mps 760 mmHg 41%
    20:00 -7°C° 0 mm 3 mps 760 mmHg 43%
    21:00 -7°C° 0 mm 3 mps 760 mmHg 45%
    22:00 -7°C° 0 mm 3 mps 760 mmHg 47%
    23:00 -7°C° 0 mm 3 mps 760 mmHg 48%

    23 February, Saturday

    Time Temperature Precipitation Wind Pressure Humidity
    00:00 -8°C° 0 mm 3 mps 761 mmHg 51%
    01:00 -8°C° 0 mm 3 mps 761 mmHg 54%
    02:00 -7°C° 0 mm 2 mps 761 mmHg 56%
    03:00 -7°C° 0 mm 2 mps 760 mmHg 58%
    04:00 -8°C° 0 mm 2 mps 760 mmHg 59%
    05:00 -8°C° 0 mm 2 mps 760 mmHg 60%
    06:00 -8°C° 0 mm 2 mps 760 mmHg 61%
    07:00 -7°C° 0 mm 1 mps 760 mmHg 62%
    08:00 -7°C° 0 mm 1 mps 760 mmHg 63%
    09:00 -6°C° 0 mm 1 mps 760 mmHg 60%
    10:00 -4°C° 0 mm 1 mps 760 mmHg 57%
    11:00 -3°C° 0 mm 1 mps 760 mmHg 54%
    12:00 -4°C° 0 mm 2 mps 760 mmHg 52%
    13:00 -3°C° 0 mm 2 mps 759 mmHg 50%
    14:00 -3°C° 0 mm 2 mps 759 mmHg 48%
    15:00 -3°C° 0 mm 2 mps 759 mmHg 53%
    16:00 -3°C° 0 mm 2 mps 758 mmHg 57%
    17:00 -4°C° 0 mm 3 mps 758 mmHg 62%
    18:00 -5°C° 0.1 mm 3 mps 757 mmHg 68%
    19:00 -5°C° 0.1 mm 3 mps 757 mmHg 74%
    20:00 -5°C° 0.1 mm 3 mps 757 mmHg 80%
    21:00 -5°C° 0.1 mm 3 mps 756 mmHg 82%
    22:00 -5°C° 0.1 mm 3 mps 756 mmHg 84%
    23:00 -5°C° 0.1 mm 3 mps 755 mmHg 86%

    24 February, Sunday

    Time Temperature Precipitation Wind Pressure Humidity
    00:00 -4°C° 0.1 mm 3 mps 755 mmHg 87%
    01:00 -4°C° 0.1 mm 3 mps 755 mmHg 89%
    02:00 -4°C° 0.1 mm 3 mps 755 mmHg 91%
    03:00 -2°C° 0 mm 3 mps 755 mmHg 92%
    04:00 -2°C° 0 mm 3 mps 755 mmHg 94%
    05:00 -2°C° 0 mm 2 mps 755 mmHg 96%
    06:00 -2°C° 0 mm 2 mps 755 mmHg 96%
    07:00 -2°C° 0 mm 2 mps 756 mmHg 96%
    08:00 -2°C° 0 mm 2 mps 756 mmHg 96%
    09:00 -1°C° 0 mm 3 mps 757 mmHg 93%
    10:00 -1°C° 0 mm 3 mps 757 mmHg 90%
    11:00 -1°C° 0 mm 3 mps 758 mmHg 88%
    12:00 0°C° 0 mm 3 mps 758 mmHg 86%
    13:00 +1°C° 0 mm 2 mps 758 mmHg 84%
    14:00 +1°C° 0 mm 2 mps 758 mmHg 82%
    15:00 +1°C° 0 mm 2 mps 758 mmHg 83%
    16:00 +1°C° 0 mm 2 mps 758 mmHg 83%
    17:00 +1°C° 0 mm 2 mps 758 mmHg 84%
    18:00 -1°C° 0 mm 2 mps 758 mmHg 86%
    19:00 -1°C° 0 mm 2 mps 759 mmHg 88%
    20:00 +1°C° 0 mm 1 mps 759 mmHg 90%
    21:00 0°C° 0 mm 1 mps 759 mmHg 91%
    22:00 0°C° 0 mm 1 mps 759 mmHg 92%
    23:00 0°C° 0 mm 1 mps 759 mmHg 94%
    Show more